YO8SSH-13 Weather Reports


Display with metric or nautical units.
time (UTC)temp
F
wind
direction
speed
MPH
gust
MPH
rain 1hr
in
rain 24hr
in
rain mn
in
humidity
%
barometer
mb
20260505230525 56 90 0.0 0.0 0.00 0.00 0.00 49 1010.0
20260505225027 56 248 0.0 0.0 0.00 0.00 0.00 49 1010.0
20260505223526 56 292 0.0 0.0 0.00 0.00 0.00 48 1010.0
20260505222026 57 292 0.0 0.0 0.00 0.00 0.00 47 1010.0
20260505220526 58 292 0.0 0.0 0.00 0.00 0.00 46 1010.0
20260505215027 58 292 0.0 0.0 0.00 0.00 0.00 46 1010.0
20260505213525 59 292 0.0 1.0 0.00 0.00 0.00 45 1010.0
20260505212027 60 292 0.0 0.0 0.00 0.00 0.00 44 1010.0
20260505210526 61 292 0.0 0.0 0.00 0.00 0.00 42 1010.0
20260505205028 62 248 0.0 0.0 0.00 0.00 0.00 41 1010.0
20260505203527 63 292 0.0 0.0 0.00 0.00 0.00 39 1010.0
20260505202028 63 225 0.0 0.0 0.00 0.00 0.00 37 1010.0
20260505200525 64 202 0.0 0.0 0.00 0.00 0.00 37 1010.0
20260505195034 65 135 0.0 0.0 0.00 0.00 0.00 36 1010.0
20260505193527 65 135 0.0 2.0 0.00 0.00 0.00 36 1010.0
20260505192025 66 112 0.0 0.0 0.00 0.00 0.00 35 1010.0
20260505190525 67 135 0.0 0.0 0.00 0.00 0.00 33 1010.0
20260505185026 68 90 0.0 0.0 0.00 0.00 0.00 32 1010.0
20260505183526 69 135 0.0 0.0 0.00 0.00 0.00 32 1010.0
20260505182026 70 90 0.0 0.0 0.00 0.00 0.00 31 1010.0
20260505180526 70 112 0.0 0.0 0.00 0.00 0.00 30 1010.0
20260505175026 72 135 0.0 0.0 0.00 0.00 0.00 28 1009.0
20260505173525 73 112 0.0 0.0 0.00 0.00 0.00 26 1009.0
20260505172026 74 135 0.0 1.0 0.00 0.00 0.00 25 1009.0
20260505170527 76 158 0.0 0.0 0.00 0.00 0.00 24 1009.0
20260505165026 77 112 1.0 2.0 0.00 0.00 0.00 23 1009.0
20260505163527 79 135 0.0 0.0 0.00 0.00 0.00 22 1009.0
20260505162026 80 135 0.0 2.0 0.00 0.00 0.00 21 1010.0
20260505160525 81 112 0.0 5.0 0.00 0.00 0.00 21 1010.0
20260505152026 83 158 2.0 3.0 0.00 0.00 0.00 20 1010.0
20260505150527 83 135 3.0 3.0 0.00 0.00 0.00 21 1010.0
20260505140528 84 180 1.0 6.0 0.00 0.00 0.00 20 1010.0
20260505125025 86 180 4.0 7.0 0.00 0.00 0.00 20 1010.0
20260505123527 85 180 4.0 6.0 0.00 0.00 0.00 20 1011.0
20260505122025 85 180 3.0 6.0 0.00 0.00 0.00 20 1011.0
20260505121609 85 180 1.0 6.0 0.00 0.00 0.00 20 1011.0
20260505120110 85 68 4.0 6.0 0.00 0.00 0.00 19 1011.0
20260505114608 84 158 0.0 5.0 0.00 0.00 0.00 20 1011.0
20260505113109 85 90 6.0 6.0 0.00 0.00 0.00 20 1011.0
20260505111610 84 22 2.0 8.0 0.00 0.00 0.00 22 1011.0
20260505110908 83 158 8.0 8.0 0.00 0.00 0.00 22 1011.0
20260505100906 82 158 1.0 2.0 0.00 0.00 0.00 24 1012.0
20260505095407 82 135 2.0 2.0 0.00 0.00 0.00 26 1012.0
20260505093907 81 158 0.0 1.0 0.00 0.00 0.00 26 1012.0
20260505092407 81 158 0.0 2.0 0.00 0.00 0.00 28 1012.0
20260505090908 80 315 1.0 3.0 0.00 0.00 0.00 28 1012.0
20260505085408 79 158 2.0 2.0 0.00 0.00 0.00 31 1012.0
20260505083907 78 68 2.0 2.0 0.00 0.00 0.00 31 1013.0
20260505082407 78 180 0.0 1.0 0.00 0.00 0.00 33 1013.0
20260505080909 78 135 2.0 2.0 0.00 0.00 0.00 34 1013.0
20260505075407 77 112 0.0 3.0 0.00 0.00 0.00 35 1013.0
20260505073920 76 338 0.0 0.0 0.00 0.00 0.00 37 1013.0
20260505072407 75 22 0.0 0.0 0.00 0.00 0.00 38 1013.0
20260505070909 74 158 1.0 2.0 0.00 0.00 0.00 38 1013.0
20260505065407 74 90 0.0 1.0 0.00 0.00 0.00 39 1013.0
20260505063906 73 315 1.0 2.0 0.00 0.00 0.00 41 1013.0
20260505062407 72 270 0.0 2.0 0.00 0.00 0.00 43 1013.0
20260505060907 70 22 0.0 0.0 0.00 0.00 0.00 46 1013.0
20260505055406 67 315 0.0 1.0 0.00 0.00 0.00 49 1013.0
20260505053907 65 315 0.0 0.0 0.00 0.00 0.00 52 1013.0
20260505052407 61 338 0.0 1.0 0.00 0.00 0.00 58 1013.0
20260505050908 57 292 0.0 0.0 0.00 0.00 0.00 62 1013.0
20260505040907 49 0 0.0 0.0 0.00 0.00 0.00 66 1013.0
20260505035406 48 338 0.0 0.0 0.00 0.00 0.00 66 1013.0
20260505033907 48 0 0.0 0.0 0.00 0.00 0.00 66 1013.0
20260505032410 48 0 0.0 0.0 0.00 0.00 0.00 65 1013.0
20260505030907 48 315 0.0 0.0 0.00 0.00 0.00 64 1012.0
20260505025426 48 315 0.0 0.0 0.00 0.00 0.00 64 1012.0
20260505023906 49 292 0.0 0.0 0.00 0.00 0.00 63 1012.0
20260505022408 49 315 0.0 0.0 0.00 0.00 0.00 62 1012.0
20260505020907 49 315 0.0 0.0 0.00 0.00 0.00 61 1012.0
20260505015407 50 315 0.0 0.0 0.00 0.00 0.00 60 1012.0
20260505013907 50 315 0.0 0.0 0.00 0.00 0.00 60 1012.0
20260505012406 50 292 0.0 0.0 0.00 0.00 0.00 59 1012.0
20260505010906 51 292 0.0 0.0 0.00 0.00 0.00 58 1012.0
20260505005407 52 292 0.0 0.0 0.00 0.00 0.00 58 1012.0
20260505003906 52 292 0.0 0.0 0.00 0.00 0.00 57 1012.0
20260505002406 52 292 0.0 0.0 0.00 0.00 0.00 57 1012.0
20260505000906 52 292 0.0 0.0 0.00 0.00 0.00 56 1012.0
20260504235407 53 292 0.0 0.0 0.00 0.00 0.00 56 1012.0
20260504233912 53 292 0.0 0.0 0.00 0.00 0.00 56 1012.0
20260504232406 53 292 0.0 0.0 0.00 0.00 0.00 55 1013.0
20260504230906 54 292 0.0 0.0 0.00 0.00 0.00 54 1013.0